Weather History for Mombasa, Kenya

Change the Weather History Date:

Saturday, October 19, 2013

  Actual Average Record
Temperature  
Mean Temperature 78 °F -  
Max Temperature 86 °F 88 °F 89 °F (2003)
Min Temperature 69 °F 71 °F 60 °F (2010)
Cooling Degree Days 12    
Growing Degree Days 28 (Base 50)    
Moisture  
Dew Point 69 °F    
Average Humidity 71    
Maximum Humidity 88    
Minimum Humidity 48    
Precipitation  
Precipitation 0.00 in 0.14 in - ()
Sea Level Pressure  
Sea Level Pressure 29.95 in    
Wind  
Wind Speed 10 mph ()    
Max Wind Speed 78 mph    
Max Gust Speed -    
Visibility 7.5 miles    
Events      
Averages and records for this station are not official NWS values.
T = Trace of Precipitation, MM = Missing Value Source: Averaged Metar Reports

Daily Weather History Graph

Daily Weather History Graph

Search for Another Location

Airport:

Trip Planner

Search our weather history database for the weather conditions in past years. The results will help you decide how hot, cold, wet, or windy it might be!

Date:

Astronomy

Oct. 19, 2013 Rise Set
Actual Time 6:00 AM EAT 6:12 PM EAT
Civil Twilight 5:39 AM EAT 6:33 PM EAT
Nautical Twilight 5:14 AM EAT 6:58 PM EAT
Astronomical Twilight 4:50 AM EAT 7:22 PM EAT
Moon 6:40 PM EAT (10/19) 6:07 AM EAT (10/19)
Length of Visible Light 12h 54m
Length of Day
12h 12m
Full, 100% of the Moon is Illuminated
Oct 19
Full
Oct 27
Last Quarter
Nov 3
New
Nov 10
First Quarter
Nov 17
Full

Hourly Weather History & Observations

Time (EAT) Temp. Heat Index Dew Point Humidity Pressure Visibility Wind Dir Wind Speed Gust Speed Precip Events Conditions
12:30 AM 77.0 °F - 69.8 °F 78% 29.95 in 6.2 mi SSE 5.8 mph - N/A   Partly Cloudy
3:00 AM 73 °F - 70 °F 86% 29.92 in 16 mi Calm Calm - -   Scattered Clouds
6:00 AM 71.6 °F - 68.0 °F 88% 29.95 in 6.2 mi WSW 3.5 mph - N/A   Partly Cloudy
7:00 AM 73.4 °F - 69.8 °F 88% 29.98 in 6.2 mi WSW 6.9 mph - N/A   Partly Cloudy
8:00 AM 77.0 °F - 71.6 °F 83% 30.01 in 6.2 mi SW 8.1 mph - N/A   Partly Cloudy
9:00 AM - - 70 °F % 30.01 in 0 mi NNE 78.3 mph - -   Mostly Cloudy
9:00 AM 80.6 °F 83.9 °F 69.8 °F 70% 30.01 in 6.2 mi South 5.8 mph - N/A   Mostly Cloudy
10:00 AM 84.2 °F 88.4 °F 69.8 °F 62% 30.01 in 6.2 mi ESE 11.5 mph - N/A   Mostly Cloudy
11:00 AM 84.2 °F 88.4 °F 69.8 °F 62% 30.01 in 6.2 mi SSE 11.5 mph - N/A   Mostly Cloudy
12:00 PM 84.2 °F 87.3 °F 68.0 °F 58% 29.98 in 6.2 mi SE 13.8 mph - N/A   Scattered Clouds
1:00 PM 86.0 °F 89.4 °F 68.0 °F 55% 29.95 in 6.2 mi South 11.5 mph - N/A   Partly Cloudy
2:00 PM 84.2 °F 87.3 °F 68.0 °F 58% 29.92 in 6.2 mi SE 20.7 mph - N/A   Partly Cloudy
3:00 PM 85 °F - 68 °F 48% 29.91 in 19 mi SSE 20.7 mph - -   Scattered Clouds
3:00 PM 84.2 °F 87.3 °F 68.0 °F 58% 29.92 in 6.2 mi SSE 20.7 mph - N/A   Partly Cloudy
4:00 PM 84.2 °F 86.6 °F 66.2 °F 55% 29.89 in 6.2 mi SSE 11.5 mph - N/A   Partly Cloudy
5:00 PM 82.4 °F 85.4 °F 68.0 °F 62% 29.89 in 6.2 mi South 6.9 mph - N/A   Partly Cloudy
6:00 PM 80.6 °F 83.2 °F 68.0 °F 65% 29.92 in 6.2 mi South 12.7 mph - N/A   Partly Cloudy
7:00 PM 78.8 °F - 71.6 °F 78% 29.92 in 6.2 mi SSE 10.4 mph - N/A   Partly Cloudy
8:00 PM 77.0 °F - 71.6 °F 83% 29.95 in 6.2 mi SSW 4.6 mph - N/A   Partly Cloudy
9:00 PM 77 °F - 71 °F 78% 29.95 in 19 mi SSE 4.6 mph - -   Scattered Clouds
9:00 PM 77.0 °F - 71.6 °F 83% 29.95 in 6.2 mi SSE 4.6 mph - N/A   Partly Cloudy
10:00 PM 77.0 °F - 71.6 °F 83% 29.98 in 6.2 mi South 3.5 mph - N/A   Partly Cloudy
11:00 PM 73.4 °F - 69.8 °F 88% 29.98 in 6.2 mi SW 3.5 mph - N/A   Partly Cloudy